Temp_Advection
nan nan nan nan nan nan nan nan nan nan nan nan nan nan nan nan nan nan nan nan nan nan nan nan nan nan nan nan nan nan nan nan nan
nan 0 0 -0 -0 -0 0 0 0 -0 0 -0 -0 0 -0 0 0 0 0 0 0 -0 -0 -0 -0 -0 -0 0 0 0 -0 0 nan
nan -0 0 -0 -0 -0 -0 -0 0 0 0 0 0 0 -0 -0 0 1 0 0 -0 0 -0 0 0 -0 -0 0 0 0 -0 -0 nan
nan 0 0 -0 -0 -0 -0 -0 -0 0 0 0 0 0 0 -0 -0 1 1 0 -0 -0 0 -0 0 0 0 0 0 -0 -0 -0 nan
nan 0 0 0 -0 -0 -0 -0 -0 -0 -0 0 0 0 0 -0 -0 0 1 1 0 -0 -0 0 0 -0 0 0 -0 -0 0 0 nan
nan 0 0 0 -0 -0 -0 -0 -0 0 -0 -0 -0 0 0 0 -0 -0 0 0 0 -0 -0 -0 -0 0 0 0 0 0 0 0 nan
nan 0 0 0 0 -0 -0 -0 -0 -0 -0 -0 -0 0 0 0 -0 -1 0 0 -0 -0 -0 0 0 1 0 0 0 0 0 0 nan
nan 0 0 0 0 -0 -0 -1 -0 -0 -0 -0 -0 0 -0 -0 -0 -1 -0 0 -0 0 -0 0 1 1 0 0 0 -0 -0 -0 nan
nan 0 0 0 0 0 -0 -0 -0 -0 0 0 -0 -0 -0 -0 -0 -1 -1 -0 -0 0 -0 -0 0 1 0 -0 -0 -0 -0 -0 nan
nan 0 0 0 0 0 0 0 -0 -0 0 -0 0 0 0 -0 -0 -0 -1 -1 -0 -0 -0 -0 -0 0 0 0 -0 -0 -0 -0 nan
nan 0 0 0 0 0 0 0 0 0 0 -0 0 0 0 0 0 -0 -0 -0 -0 -0 -1 -0 0 0 0 0 0 -0 -0 -0 nan
nan 0 0 0 0 0 0 0 0 0 0 0 0 0 0 0 0 0 0 0 0 -0 -0 -0 -0 0 0 0 -0 -0 -0 -0 nan
nan 0 0 0 0 0 0 -0 -0 0 0 0 0 0 0 0 0 0 0 0 0 0 0 -0 -0 -0 -0 -0 -0 -0 -0 -0 nan
nan -0 0 0 0 0 0 0 0 0 0 0 0 0 0 0 0 0 0 0 0 0 0 0 -0 -0 -0 -0 -0 -0 -0 -0 nan
nan 0 0 0 0 0 0 0 0 0 0 0 0 0 0 0 0 0 0 0 0 0 0 0 -0 -0 -0 -0 -0 -0 -0 -0 nan
nan 0 0 0 0 0 -0 0 0 0 0 0 0 0 0 0 0 0 0 0 0 0 0 -0 -0 -0 -0 -0 -0 -0 -0 -0 nan
nan 0 0 0 0 0 -0 0 0 -0 0 0 -0 -0 -0 0 0 0 0 0 0 0 -0 -0 -0 -0 -0 -0 -0 -0 -0 -0 nan
nan 0 0 0 0 0 0 0 -0 -0 -0 -0 -0 -0 -0 0 0 0 0 0 0 0 -0 -0 -0 -0 -0 -0 -0 -0 -0 -0 nan
nan -0 -0 0 -0 -0 -0 -0 -0 0 -0 -0 -0 -0 0 -0 -0 -0 0 0 0 0 0 0 -0 -0 -0 -0 -0 -0 -0 -0 nan
nan nan nan nan nan nan nan nan nan nan nan nan nan nan nan nan nan nan nan nan nan nan nan nan nan nan nan nan nan nan nan nan nan
Wind_Speed
20 18 20 20 21 21 21 23 24 23 20 17 15 19 19 18 17 18 16 16 18 17 18 17 16 12 15 19 20 19 19 18 18
19 20 21 22 22 22 23 25 24 23 19 18 20 18 17 17 15 17 17 18 18 16 17 15 14 13 13 15 15 17 16 17 15
20 21 21 21 22 22 24 24 24 22 21 19 17 15 14 14 14 15 16 13 12 12 11 11 11 10 12 12 10 9 8 10 11
20 20 20 21 22 23 24 25 24 21 20 17 16 14 13 9 14 17 14 12 11 8 7 7 10 10 9 8 8 8 8 6 6
19 19 19 20 21 22 23 24 24 21 18 17 16 11 6 6 10 14 14 15 11 8 7 11 13 12 11 11 11 12 11 10 9
17 18 18 19 21 22 23 25 23 21 17 13 11 8 7 5 10 14 13 12 11 12 15 14 14 14 14 14 14 14 13 13 12
17 17 18 19 21 23 25 26 22 17 14 13 10 6 5 5 10 15 14 13 12 13 14 14 14 14 14 14 13 13 13 12 12
18 18 19 19 20 23 26 28 24 19 13 11 8 4 3 6 9 14 14 14 13 14 14 13 14 14 13 13 13 13 12 12 12
18 18 18 19 20 22 25 25 22 17 13 9 7 4 5 9 10 11 14 15 13 13 13 11 13 12 12 12 12 12 11 11 11
19 19 19 19 19 19 21 21 19 16 12 10 7 7 8 9 10 10 11 13 14 13 12 12 11 12 11 10 10 10 10 10 10
19 19 19 19 17 17 18 18 17 14 12 11 8 7 8 9 10 9 9 9 9 9 10 11 11 11 10 9 9 9 9 9 9
17 18 18 17 17 17 19 18 16 14 13 11 9 7 7 8 9 9 8 7 6 6 6 6 6 5 6 8 8 8 9 10 11
17 17 17 17 17 18 19 18 17 15 13 10 8 8 8 7 7 7 6 5 4 4 3 2 2 3 5 7 8 9 10 11 12
17 17 17 18 18 18 18 18 17 17 15 13 10 8 7 6 6 5 5 4 3 3 2 1 2 3 5 7 9 11 13 14 15
19 18 19 19 20 20 19 18 18 15 14 13 10 8 7 6 6 5 4 4 5 4 4 4 5 5 8 9 12 14 16 17 18
20 19 20 20 21 21 20 20 18 18 17 15 13 11 9 9 8 6 6 5 6 6 6 6 7 8 10 13 15 17 18 19 19
21 21 21 21 21 22 22 21 22 21 20 17 15 10 12 14 13 11 9 7 7 8 8 8 9 10 12 17 18 20 20 19 20
22 21 21 22 23 22 23 23 23 23 23 20 13 8 9 16 16 14 12 10 9 9 10 10 10 12 16 21 23 23 21 21 21
23 23 23 23 23 23 22 22 23 23 24 24 23 13 8 10 9 18 15 13 10 10 11 11 12 15 19 22 23 22 21 22 22
24 25 25 25 25 24 24 24 25 25 25 25 24 24 17 13 10 11 18 16 14 12 12 13 14 17 20 21 22 21 22 24 24
Wind_Direction
129 129 130 131 130 129 130 134 139 141 141 136 122 108 109 105 89 92 93 90 95 93 97 95 93 90 91 95 92 86 82 80 75
133 136 133 132 131 131 131 136 137 137 131 121 119 120 120 112 109 106 102 103 101 102 100 101 95 88 93 89 98 103 100 94 88
137 135 135 134 135 135 137 140 139 138 127 121 129 131 134 121 122 112 108 110 100 119 118 114 114 106 91 79 77 74 80 96 97
137 136 136 136 136 137 141 144 142 137 130 136 133 139 149 141 125 120 112 116 106 101 120 114 97 93 86 74 66 64 68 67 76
141 140 139 139 139 139 142 145 142 145 143 140 141 149 142 118 140 139 129 125 125 102 84 93 91 88 80 72 70 69 67 67 64
144 142 141 138 139 139 143 146 147 156 158 146 146 143 115 97 130 110 114 130 129 102 90 92 89 85 82 79 76 72 68 65 64
148 147 146 143 143 142 146 148 154 161 157 149 156 151 109 112 123 112 114 109 108 103 91 90 88 85 82 78 74 71 66 61 58
154 153 151 149 149 150 153 157 165 173 171 165 162 148 126 137 132 121 118 113 107 102 97 92 88 85 80 75 70 65 61 58 54
158 158 156 155 152 154 159 165 170 177 174 176 165 151 144 140 139 129 119 117 109 102 100 90 85 81 75 70 64 60 55 51 45
163 162 162 161 161 162 165 169 171 179 181 188 182 160 145 139 139 135 127 126 120 113 103 93 87 80 75 67 57 50 42 35 29
171 171 171 171 169 169 174 173 172 176 179 177 173 156 146 144 143 140 135 128 122 114 108 104 96 86 75 53 43 35 29 22 15
184 180 179 179 176 170 170 173 178 183 183 181 171 162 151 148 148 144 138 131 125 118 109 103 95 74 43 27 18 12 6 359 353
190 188 188 183 180 177 178 182 184 187 188 189 185 173 166 164 160 155 152 151 148 143 135 115 66 28 18 6 355 350 346 339 333
198 195 192 190 190 187 187 186 192 187 187 190 188 186 181 178 178 176 178 184 186 189 206 239 318 336 340 342 337 336 332 326 324
202 198 196 194 194 194 191 192 188 194 190 185 187 195 209 207 202 212 208 224 233 246 261 277 297 311 321 334 331 332 329 323 321
204 202 200 198 197 198 196 193 190 186 188 186 180 189 208 225 229 230 236 243 249 265 268 281 297 311 324 330 330 330 326 323 321
209 208 206 204 200 199 201 202 195 196 195 196 192 194 212 222 228 228 240 251 262 275 269 283 296 309 320 327 327 328 326 324 321
214 212 211 207 206 206 205 204 210 206 203 204 197 188 216 216 224 231 241 243 256 262 270 283 298 312 321 323 324 323 323 326 324
218 218 216 214 213 211 212 212 212 214 215 211 215 225 218 193 207 225 232 238 245 255 272 287 299 310 311 313 314 315 316 320 321
221 221 220 218 217 216 215 214 214 215 220 221 220 225 230 225 214 206 219 227 235 248 265 276 284 292 300 304 304 306 310 314 317
Height
1543 1545 1545 1547 1549 1551 1553 1555 1557 1559 1561 1563 1565 1566 1568 1568 1568 1567 1568 1568 1568 1568 1568 1567 1567 1567 1566 1566 1566 1566 1566 1565 1565
1544 1545 1547 1549 1551 1553 1555 1557 1559 1560 1563 1565 1566 1569 1570 1570 1570 1569 1570 1570 1569 1570 1569 1569 1569 1568 1567 1567 1567 1566 1566 1566 1567
1544 1547 1549 1551 1553 1555 1557 1559 1561 1563 1565 1567 1569 1570 1571 1571 1571 1572 1572 1572 1572 1571 1570 1570 1570 1569 1568 1568 1567 1566 1566 1566 1566
1545 1548 1550 1552 1554 1557 1559 1561 1563 1565 1567 1568 1569 1570 1571 1571 1572 1573 1573 1574 1573 1572 1571 1571 1570 1569 1569 1568 1567 1566 1566 1566 1566
1546 1548 1551 1553 1556 1558 1560 1562 1565 1565 1567 1568 1569 1570 1571 1571 1571 1572 1573 1574 1574 1574 1573 1571 1571 1570 1569 1568 1567 1567 1566 1566 1566
1547 1549 1551 1554 1556 1558 1561 1563 1565 1566 1567 1569 1570 1571 1571 1571 1571 1572 1573 1574 1574 1574 1573 1573 1571 1571 1570 1569 1568 1568 1567 1567 1567
1548 1550 1552 1554 1557 1559 1562 1564 1565 1566 1567 1569 1571 1572 1572 1572 1572 1573 1574 1575 1575 1575 1574 1574 1572 1572 1571 1571 1570 1570 1569 1569 1569
1548 1550 1552 1554 1557 1559 1562 1564 1566 1566 1568 1570 1571 1571 1572 1572 1573 1573 1575 1576 1576 1576 1576 1575 1574 1573 1573 1573 1572 1572 1572 1571 1570
1549 1551 1553 1555 1557 1559 1562 1564 1566 1567 1568 1569 1571 1571 1572 1573 1573 1574 1575 1576 1577 1578 1577 1576 1575 1574 1574 1574 1574 1573 1573 1572 1572
1549 1551 1553 1555 1558 1560 1562 1564 1565 1566 1567 1568 1570 1571 1572 1573 1574 1575 1575 1576 1578 1578 1578 1578 1578 1577 1576 1575 1575 1574 1574 1573 1572
1549 1551 1553 1555 1557 1560 1562 1563 1564 1565 1567 1568 1570 1571 1572 1573 1574 1575 1576 1577 1577 1578 1578 1579 1579 1579 1578 1576 1576 1575 1574 1573 1573
1549 1550 1552 1554 1557 1559 1561 1563 1565 1565 1567 1569 1570 1571 1573 1574 1575 1575 1576 1577 1577 1578 1578 1579 1579 1579 1578 1578 1577 1576 1575 1573 1572
1548 1550 1552 1554 1556 1558 1560 1562 1564 1566 1567 1568 1570 1571 1572 1574 1575 1576 1577 1578 1578 1578 1578 1579 1579 1579 1579 1578 1577 1576 1575 1573 1571
1546 1549 1551 1553 1555 1557 1560 1561 1563 1565 1567 1568 1569 1571 1572 1573 1575 1576 1577 1577 1578 1579 1579 1579 1579 1579 1579 1578 1577 1575 1574 1571 1569
1545 1547 1549 1551 1553 1556 1559 1561 1562 1565 1566 1568 1569 1571 1571 1572 1573 1574 1576 1577 1577 1578 1579 1579 1579 1579 1578 1578 1576 1575 1572 1570 1568
1543 1545 1547 1549 1552 1554 1557 1559 1562 1564 1566 1567 1569 1571 1572 1572 1572 1573 1574 1574 1576 1577 1577 1578 1578 1578 1577 1576 1575 1573 1570 1568 1565
1541 1543 1545 1547 1550 1552 1554 1556 1558 1560 1563 1565 1568 1570 1572 1571 1571 1571 1572 1573 1573 1574 1575 1576 1576 1576 1575 1574 1572 1570 1568 1566 1563
1538 1540 1543 1545 1547 1549 1552 1554 1556 1557 1559 1561 1564 1565 1565 1567 1568 1568 1570 1571 1572 1571 1572 1572 1573 1572 1572 1570 1569 1567 1565 1563 1561
1535 1537 1539 1541 1544 1546 1549 1551 1553 1555 1555 1557 1559 1561 1562 1563 1564 1565 1567 1568 1569 1568 1569 1569 1569 1568 1568 1567 1565 1563 1560 1558 1557
1530 1533 1535 1536 1538 1541 1543 1545 1548 1551 1554 1553 1554 1557 1559 1560 1560 1560 1563 1565 1566 1566 1566 1566 1566 1564 1563 1561 1560 1558 1557 1555 1552